Regional Weather Roundup
Issued by NWS

Home | Current Version | Previous Version | Text Only | Print | Product List | Glossary On
Versions: 1 2 3 4 5 6 7 8 9 10 11 12 13 14 15 16 17 18 19 20 21 22 23 24 25 26 27 28 29 30 31 32 33 34 35 36 37 38 39 40 41 42 43 44 45 46 47 48 49 50
000
ASPQ40 PGUM 021110
RWRPQ
WEATHER ROUNDUP FOR THE MARIANAS AND MICRONESIA
NATIONAL WEATHER SERVICE TIYAN GU
900 PM CHST WED SEP 02 2015

GUZ001>004-021200-
MARIANA ISLANDS-

CITY           SKY/WX    TMP DP  RH WIND       PRES   REMARKS
GUAM AIRPORT   CLEAR     81  75  83 E6        29.92R
ANDERSEN AFB   CLEAR     79  75  89 E7        29.92S
ROTA AIRPORT   NOT AVBL
TINIAN AP      NOT AVBL
SAIPAN AP      LGT RAIN  77  77 100 E7        29.91R

$$

PMZ161-021200-
REPUBLIC OF PALAU-

CITY           SKY/WX    TMP DP  RH WIND       PRES   REMARKS
KOROR AP       MOCLDY    81  77  89 W8        29.90R
KOROR WSO      CLOUDY    82  77  83 W5        29.90R HX  91

$$

PMZ171>174-021200-
FEDERATED STATES OF MICRONESIA-

CITY           SKY/WX    TMP DP  RH WIND       PRES   REMARKS
YAP AIRPORT    CLOUDY    82  75  78 VRB3      29.89R
CHUUK AP       LGT RAIN  79  77  94 VRB7      29.88R
POHNPEI AP     NOT AVBL
POHNPEI WSO    CLOUDY    79  75  89 SW5       29.79F
KOSRAE AP      NOT AVBL

$$

PMZ181-021200-
REPUBLIC OF THE MARSHALL ISLANDS-

CITY           SKY/WX    TMP DP  RH WIND       PRES   REMARKS
KWAJALEIN AP   LGT RAIN  81  77  89 SW9       29.93S
MAJURO AP      NOT AVBL
MAJURO WSO     MOCLDY    82  77  83 SW10      29.90F HX  91

$$



USA.gov is the U.S. government's official web portal to all federal, state and local government web resources and services.